Location: Colonia Mina de C?rbuni
(46.1667°N, 22.7167°E)
Time: 05:22:09
(UTC+00:00)

Cosmos 1892 Rocket - Pass Details

Date: 04 February 2023
Orbit: 605 x 632 km, 82.5° (Epoch: 21 March)

Event Time Altitude Azimuth Distance (km) Brightness Sun altitude
Rises 17:21:10 0° 196° (SSW) 2,896 7.3 -18.1°
Reaches altitude 10° 17:23:25 10° 200° (SSW) 1,990 6.4 -18.5°
Maximum altitude 17:27:48 62° 281° (W) 701 4.0 -19.2°
Drops below altitude 10° 17:32:10 10° 3° (N) 1,989 6.1 -20.0°
Sets 17:34:25 0° 6° (N) 2,895 6.9 -20.4°
